CW6538 Cattolica IT current weather conditions

sailwx.info

Wind from 211 at 5 knots gusting 9

Air temperature 12.2° C
Dewpoint 6.7° C

Last reported at 2016-Feb-13 20:49 UTC.
Time now 2016-Feb-13 21:25 UTC

Location: N 43°58' E 012°44'.
View on Google Maps.

See reports from other nearby stations

  
Tides and Currents Weather Stations Pressure Air Temp Water Temp Dewpoint Dewpoint Depression Visibility Wind Speed Wind Dir Waves Ship Positions
date/time (UTC)wind fromknots sea level pressurealtimeterstation pressurevisibilityair tempwater tempwave heightnotes
2016-Feb-13 20:49 211 5 gusting 9 12.2
2016-Feb-13 20:45 215 5 gusting 9 12.2
2016-Feb-13 20:39 188 5 gusting 10 12.2
2016-Feb-13 20:35 206 6 gusting 10 12.2
2016-Feb-13 20:25 173 6 gusting 10 12.2
2016-Feb-13 20:20 190 4 gusting 6 12.2
2016-Feb-13 20:09 177 3 gusting 5 12.2
2016-Feb-13 20:04 188 2 gusting 4 12.2
2016-Feb-13 19:59 188 2 gusting 7 12.2
2016-Feb-13 19:55 188 4 gusting 8 12.2
2016-Feb-13 19:49 205 6 gusting 12 12.8
2016-Feb-13 19:44 190 5 gusting 13 12.2
2016-Feb-13 19:39 216 7 gusting 13 12.2
2016-Feb-13 19:34 222 6 gusting 13 12.2
2016-Feb-13 19:29 222 5 gusting 11 12.2
2016-Feb-13 19:19 198 5 gusting 11 12.2
2016-Feb-13 19:14 193 5 gusting 12 12.2
2016-Feb-13 19:10 219 6 gusting 13 12.2
2016-Feb-13 19:05 209 6 gusting 13 12.2
2016-Feb-13 18:59 179 7 gusting 12 11.7
2016-Feb-13 18:55 165 3 gusting 6 11.7
2016-Feb-13 18:49 201 2 gusting 7 11.7
2016-Feb-13 18:44 168 2 gusting 7 11.7
2016-Feb-13 18:39 180 1 gusting 4 11.7
2016-Feb-13 18:34 180 1 gusting 4 11.7
2016-Feb-13 18:30 180 1 gusting 5 11.7
2016-Feb-13 18:25 205 3 gusting 6 11.7
2016-Feb-13 18:19 180 3 gusting 5 12.2
2016-Feb-13 18:14 214 3 gusting 6 12.2
2016-Feb-13 18:10 206 2 gusting 9 12.2
2016-Feb-13 18:04 175 5 gusting 10 12.2
2016-Feb-13 17:59 163 5 gusting 9 12.2
2016-Feb-13 17:55 180 5 gusting 15 12.2
2016-Feb-13 17:49 161 6 gusting 13 12.2
2016-Feb-13 17:44 216 6 gusting 13 12.2
2016-Feb-13 17:39 186 6 gusting 11 12.2
2016-Feb-13 17:34 202 6 gusting 11 12.2
2016-Feb-13 17:30 209 7 gusting 13 12.2
2016-Feb-13 17:24 179 7 gusting 13 12.2
2016-Feb-13 17:19 197 6 gusting 9 12.2
2016-Feb-13 17:15 201 6 gusting 13 12.8
2016-Feb-13 17:09 217 9 gusting 15 12.8
2016-Feb-13 17:04 194 6 gusting 12 12.8
2016-Feb-13 16:59 213 7 gusting 15 12.8
2016-Feb-13 16:54 213 10 gusting 15 12.8
2016-Feb-13 16:49 188 7 gusting 18 12.8
2016-Feb-13 16:44 210 9 gusting 18 12.8
2016-Feb-13 16:40 200 8 gusting 19 12.8
2016-Feb-13 16:29 180 11 gusting 19 12.8
2016-Feb-13 16:24 216 8 gusting 20 12.8
2016-Feb-13 16:19 205 10 gusting 20 12.2
2016-Feb-13 16:14 196 9 gusting 16 11.7
2016-Feb-13 16:10 220 8 gusting 19 11.7
2016-Feb-13 16:04 235 10 gusting 19 10.6
2016-Feb-13 15:59 229 4 gusting 6 10.0
2016-Feb-13 15:54 198 2 gusting 5 9.4
2016-Feb-13 15:49 219 2 gusting 5 9.4
2016-Feb-13 15:44 198 3 gusting 5 9.4
2016-Feb-13 15:39 186 3 gusting 5 9.4
2016-Feb-13 15:34 192 2 gusting 4 9.4
2016-Feb-13 15:30 184 3 gusting 4 9.4
2016-Feb-13 15:25 184 2 gusting 4 9.4
2016-Feb-13 15:19 213 0 gusting 6 8.9
2016-Feb-13 15:14 139 0 gusting 6 8.9
2016-Feb-13 15:10 130 4 gusting 6 8.9
2016-Feb-13 15:04 133 0 gusting 5 8.9
2016-Feb-13 15:00 143 2 gusting 5 8.9
2016-Feb-13 14:50 101 3 gusting 7 8.9
2016-Feb-13 14:45 109 4 gusting 8 8.9
2016-Feb-13 14:39 084 5 gusting 9 8.9
2016-Feb-13 14:30 111 5 gusting 11 8.9
2016-Feb-13 14:25 136 5 gusting 11 8.9
2016-Feb-13 14:19 086 6 gusting 11 8.9
2016-Feb-13 14:09 074 6 gusting 12 8.9
2016-Feb-13 14:05 067 6 gusting 12 8.9
2016-Feb-13 13:54 072 8 gusting 13 8.9
2016-Feb-13 13:49 046 6 gusting 13 8.9
2016-Feb-13 13:44 078 7 gusting 13 8.9
2016-Feb-13 13:39 067 6 gusting 12 8.9
2016-Feb-13 13:29 056 9 gusting 13 8.9
2016-Feb-13 13:24 090 6 gusting 13 9.4
2016-Feb-13 13:20 045 8 gusting 13 9.4
2016-Feb-13 13:14 046 6 gusting 12 9.4
2016-Feb-13 13:10 044 6 gusting 13 9.4
2016-Feb-13 13:00 045 6 gusting 12 9.4
2016-Feb-13 12:49 095 7 gusting 13 8.9
2016-Feb-13 12:45 051 9 gusting 12 9.4
2016-Feb-13 12:35 068 6 gusting 12 9.4
2016-Feb-13 12:29 071 7 gusting 13 8.9
2016-Feb-13 12:25 071 8 gusting 13 8.9
2016-Feb-13 12:20 052 7 gusting 12 9.4
2016-Feb-13 12:14 049 7 gusting 13 9.4
2016-Feb-13 12:09 059 6 gusting 13 9.4
2016-Feb-13 12:04 055 6 gusting 12 9.4
2016-Feb-13 11:59 047 8 gusting 12 9.4
2016-Feb-13 11:54 057 6 gusting 11 9.4
2016-Feb-13 11:49 032 5 gusting 10 9.4
2016-Feb-13 11:44 053 6 gusting 11 9.4
2016-Feb-13 11:40 049 7 gusting 11 9.4
2016-Feb-13 11:29 039 6 gusting 9 8.9
2016-Feb-13 11:24 035 6 gusting 9 8.9
2016-Feb-13 11:20 036 5 gusting 9 8.9
2016-Feb-13 11:14 047 6 gusting 9 8.9
2016-Feb-13 11:10 032 5 gusting 7 8.9
2016-Feb-13 11:04 046 6 gusting 8 8.9
2016-Feb-13 10:59 043 5 gusting 7 8.9
2016-Feb-13 10:54 041 6 gusting 8 8.3
2016-Feb-13 10:49 061 5 gusting 8 8.3
2016-Feb-13 10:44 066 5 gusting 8 8.9
2016-Feb-13 10:39 061 3 gusting 6 8.9
2016-Feb-13 10:34 061 4 gusting 7 8.3
2016-Feb-13 10:29 057 2 gusting 7 8.3
2016-Feb-13 10:24 348 4 gusting 7 8.3
2016-Feb-13 10:19 360 6 gusting 7 7.8
2016-Feb-13 10:14 034 5 gusting 7 8.3
2016-Feb-13 10:09 030 3 gusting 6 8.3
2016-Feb-13 10:05 036 4 gusting 7 7.8
2016-Feb-13 09:59 355 6 gusting 10 7.8
2016-Feb-13 09:54 327 4 gusting 10 7.8
2016-Feb-13 09:49 024 4 gusting 8 7.8
2016-Feb-13 09:44 026 4 gusting 8 7.8
2016-Feb-13 09:39 005 5 gusting 8 7.8
2016-Feb-13 09:34 019 5 gusting 8 7.2
2016-Feb-13 09:29 349 5 gusting 10 7.8
2016-Feb-13 09:19 341 6 gusting 10 7.2
2016-Feb-13 09:14 360 6 gusting 9 7.2
2016-Feb-13 09:10 349 6 gusting 9 7.2
2016-Feb-13 09:04 360 6 gusting 8 7.2
2016-Feb-13 09:00 360 6 gusting 8 7.2
2016-Feb-13 08:55 350 5 gusting 7 7.2
2016-Feb-13 08:49 355 5 gusting 7 6.7
2016-Feb-13 08:45 329 5 gusting 8 6.7
2016-Feb-13 08:39 017 6 gusting 8 6.7
2016-Feb-13 08:35 355 4 gusting 8 6.7
2016-Feb-13 08:29 338 6 gusting 8 6.7
2016-Feb-13 08:25 360 5 gusting 7 6.1
2016-Feb-13 08:20 355 4 gusting 6 6.1
2016-Feb-13 08:15 332 3 gusting 6 6.1
2016-Feb-13 08:10 355 1 gusting 6 6.1
2016-Feb-13 08:05 344 3 gusting 6 5.6
2016-Feb-13 07:59 328 1 gusting 5 5.6
2016-Feb-13 07:55 309 3 gusting 6 5.6
2016-Feb-13 07:50 270 3 gusting 6 5.0
2016-Feb-13 07:45 290 3 gusting 5 5.0
2016-Feb-13 07:40 336 3 gusting 6 5.0
2016-Feb-13 07:35 321 2 gusting 6 5.0
2016-Feb-13 07:29 288 3 gusting 5 5.0
2016-Feb-13 07:24 309 0 gusting 6 4.4
2016-Feb-13 07:19 308 3 gusting 6 4.4
2016-Feb-13 07:15 308 4.4
2016-Feb-13 07:10 319 4.4
2016-Feb-13 07:05 317 1 gusting 5 4.4
2016-Feb-13 07:00 281 2 gusting 5 4.4
2016-Feb-13 06:55 288 3 gusting 5 4.4
2016-Feb-13 06:50 283 4.4
2016-Feb-13 06:44 287 1 gusting 5 4.4
2016-Feb-13 06:39 282 4 gusting 5 4.4
2016-Feb-13 06:34 269 2 gusting 5 4.4
2016-Feb-13 06:30 296 1 gusting 7 4.4
2016-Feb-13 06:25 267 1 gusting 6 4.4
2016-Feb-13 06:19 277 3 gusting 6 4.4
2016-Feb-13 06:15 305 4 gusting 6 4.4
2016-Feb-13 06:09 323 4 gusting 7 4.4
2016-Feb-13 06:04 283 4 gusting 6 4.4
2016-Feb-13 05:59 321 2 gusting 8 5.0
2016-Feb-13 05:55 293 3 gusting 8 5.0
2016-Feb-13 05:50 302 6 gusting 8 5.0
2016-Feb-13 05:44 304 4 gusting 9 5.0
2016-Feb-13 05:39 289 6 gusting 9 5.0
2016-Feb-13 05:34 288 5 gusting 9 5.0
2016-Feb-13 05:29 259 4 gusting 7 5.0
2016-Feb-13 05:25 345 4 gusting 6 5.0
2016-Feb-13 05:20 281 0 gusting 6 5.0
2016-Feb-13 05:15 270 3 gusting 5 5.0
2016-Feb-13 05:10 266 1 gusting 6 5.0
2016-Feb-13 05:04 276 3 gusting 8 5.0
2016-Feb-13 05:00 333 3 gusting 8 5.0
2016-Feb-13 04:54 337 2 gusting 6 5.0
2016-Feb-13 04:49 300 1 gusting 8 5.0
2016-Feb-13 04:44 286 4 gusting 9 5.0
2016-Feb-13 04:39 288 5 gusting 13 5.0
2016-Feb-13 04:34 305 7 gusting 16 5.0
2016-Feb-13 04:29 319 6 gusting 16 5.0
2016-Feb-13 04:25 331 6 gusting 11 5.0
2016-Feb-13 04:20 360 6 gusting 11 5.0
2016-Feb-13 04:14 288 6 gusting 17 5.0
2016-Feb-13 04:10 315 7 gusting 17 5.0
2016-Feb-13 04:04 286 7 gusting 19 5.0
2016-Feb-13 03:59 279 10 gusting 19 5.0
2016-Feb-13 03:55 350 9 gusting 18 5.0
2016-Feb-13 03:49 296 9 gusting 15 5.0
2016-Feb-13 03:45 291 9 gusting 15 5.0
2016-Feb-13 03:40 299 8 gusting 13 5.0
2016-Feb-13 03:35 313 9 gusting 16 5.0
2016-Feb-13 03:29 315 10 gusting 16 5.6
2016-Feb-13 03:24 315 8 gusting 19 5.6
2016-Feb-13 03:19 313 9 gusting 18 5.6
2016-Feb-13 03:14 318 9 gusting 19 5.6
2016-Feb-13 03:10 308 10 gusting 20 5.6
2016-Feb-13 03:04 281 11 gusting 19 5.6
2016-Feb-13 02:59 323 11 gusting 18 5.6
2016-Feb-13 02:54 299 8 gusting 17 5.6
2016-Feb-13 02:49 281 10 gusting 18 5.6
2016-Feb-13 02:39 286 8 gusting 19 5.6
2016-Feb-13 02:34 292 10 gusting 18 6.1
2016-Feb-13 02:29 288 8 gusting 17 6.1
2016-Feb-13 02:24 274 6 gusting 18 6.1
2016-Feb-13 02:19 330 7 gusting 17 6.1
2016-Feb-13 02:14 295 11 gusting 17 6.1
2016-Feb-13 02:09 285 11 gusting 17 6.1
2016-Feb-13 02:05 323 10 gusting 17 6.1
2016-Feb-13 02:00 306 8 gusting 15 6.1
2016-Feb-13 01:54 304 9 gusting 17 6.1
2016-Feb-13 01:50 306 8 gusting 18 6.7
2016-Feb-13 01:44 294 8 gusting 18 6.7
2016-Feb-13 01:39 309 7 gusting 13 6.7
2016-Feb-13 01:29 301 6 gusting 15 6.7
2016-Feb-13 01:25 311 6 gusting 15 6.7
2016-Feb-13 01:19 327 6 gusting 13 6.7
2016-Feb-13 01:15 319 7 gusting 18 6.7
2016-Feb-13 01:09 321 12 gusting 18 6.7
2016-Feb-13 01:05 288 11 gusting 19 6.7
2016-Feb-13 01:00 307 13 gusting 19 7.2
2016-Feb-13 00:54 283 12 gusting 19 7.2
2016-Feb-13 00:50 279 12 gusting 19 7.2
2016-Feb-13 00:44 273 10 gusting 18 7.2
2016-Feb-13 00:35 301 9 gusting 19 7.8
2016-Feb-13 00:29 301 12 gusting 22 7.8
2016-Feb-13 00:19 289 9 gusting 25 7.8
2016-Feb-13 00:10 288 13 gusting 19 8.3
2016-Feb-13 00:05 291 9 gusting 22 8.3
2016-Feb-13 00:00 304 10 gusting 22 8.3
2016-Feb-12 23:54 328 12 gusting 25 8.9
2016-Feb-12 23:49 292 13 gusting 25 9.4
2016-Feb-12 23:45 286 15 gusting 22 10.0
2016-Feb-12 23:39 284 2 gusting 10 10.0
2016-Feb-12 23:35 216 3 gusting 7 10.0
2016-Feb-12 23:30 208 4 gusting 6 10.0
2016-Feb-12 23:24 196 5 gusting 7 10.0
2016-Feb-12 23:19 171 4 gusting 7 10.0
2016-Feb-12 23:15 169 4 gusting 7 10.0
2016-Feb-12 23:09 170 5 gusting 7 10.0
2016-Feb-12 23:04 169 4 gusting 7 10.0
2016-Feb-12 22:54 171 5 gusting 6 10.0
2016-Feb-12 22:50 224 3 gusting 6 10.0
2016-Feb-12 22:39 192 4 gusting 7 10.0
2016-Feb-12 22:35 186 3 gusting 8 10.0
2016-Feb-12 22:24 196 3 gusting 9 10.0
2016-Feb-12 22:19 199 5 gusting 11 10.0
2016-Feb-12 22:14 200 6 gusting 11 10.0
2016-Feb-12 22:09 183 6 gusting 12 10.0
2016-Feb-12 22:04 214 6 gusting 12 10.0
2016-Feb-12 21:59 184 7 gusting 12 10.0
2016-Feb-12 21:54 180 6 gusting 11 10.0
2016-Feb-12 21:49 165 6 gusting 11 10.0
2016-Feb-12 21:44 169 6 gusting 11 10.0
2016-Feb-12 21:39 148 6 gusting 11 10.0
2016-Feb-12 21:34 167 6 gusting 13 10.0
2016-Feb-12 21:29 188 5 gusting 13 10.0
2016-Feb-12 21:24 180 6 gusting 11 10.0
2016-Feb-12 21:20 225 6 gusting 11 10.0
2016-Feb-12 21:14 123 5 gusting 6 9.4
2016-Feb-12 21:10 179 2 gusting 9 9.4
2016-Feb-12 21:05 081 3 gusting 10 9.4
2016-Feb-12 20:59 179 5 gusting 9 9.4
2016-Feb-12 20:54 188 6 gusting 9 9.4
2016-Feb-12 20:49 178 4 gusting 9 9.4
2016-Feb-12 20:44 114 4 gusting 8 9.4
2016-Feb-12 20:39 138 3 gusting 9 9.4
2016-Feb-12 20:34 161 5 gusting 9 9.4
2016-Feb-12 20:29 155 5 gusting 10 9.4
2016-Feb-12 20:24 155 5 gusting 12 9.4
2016-Feb-12 20:19 117 6 gusting 12 9.4
2016-Feb-12 20:14 139 6 gusting 9 9.4
2016-Feb-12 20:09 111 6 gusting 9 9.4
2016-Feb-12 20:04 166 3 gusting 8 9.4
2016-Feb-12 19:59 201 4 gusting 8 9.4
2016-Feb-12 19:54 174 5 gusting 9 9.4
2016-Feb-12 19:49 146 5 gusting 8 9.4
2016-Feb-12 19:45 155 5 gusting 8 9.4
2016-Feb-12 19:34 160 4 gusting 7 9.4
2016-Feb-12 19:30 155 5 gusting 7 8.9
2016-Feb-12 19:19 149 5 gusting 9 8.9
2016-Feb-12 19:14 170 4 gusting 9 8.9
2016-Feb-12 19:09 126 5 gusting 7 8.9
2016-Feb-12 19:04 115 5 gusting 7 8.9
2016-Feb-12 18:59 130 5 gusting 7 8.9
2016-Feb-12 18:55 157 4 gusting 10 8.3
2016-Feb-12 18:50 140 5 gusting 10 8.3
2016-Feb-12 18:45 121 4 gusting 8 8.3
2016-Feb-12 18:39 157 4 gusting 10 8.3
2016-Feb-12 18:34 146 4 gusting 10 8.3
2016-Feb-12 18:29 146 5 gusting 9 8.3
2016-Feb-12 18:20 136 6 gusting 9 8.3
2016-Feb-12 18:10 123 4 gusting 9 8.3
2016-Feb-12 18:04 115 5 gusting 9 8.3
2016-Feb-12 17:59 145 5 gusting 8 8.3
2016-Feb-12 17:49 134 5 gusting 8 8.3
2016-Feb-12 17:44 133 4 gusting 8 8.3
2016-Feb-12 17:39 171 3 gusting 8 8.3
2016-Feb-12 17:34 159 6 gusting 8 8.3
2016-Feb-12 17:29 132 5 gusting 7 8.3
2016-Feb-12 17:25 170 4 gusting 6 8.3
2016-Feb-12 17:19 161 2 gusting 6 8.3
2016-Feb-12 17:15 140 1 gusting 6 8.3
2016-Feb-12 17:10 146 1 gusting 6 8.3
2016-Feb-12 17:05 166 3 gusting 6 8.3
2016-Feb-12 16:54 125 0 gusting 6 8.3
2016-Feb-12 16:50 129 1 gusting 6 8.3
2016-Feb-12 16:40 137 3 gusting 6 8.3
2016-Feb-12 16:34 130 1 gusting 5 8.3
2016-Feb-12 16:29 154 1 gusting 5 8.3
2016-Feb-12 16:24 126 1 gusting 4 8.3
2016-Feb-12 16:20 113 1 gusting 4 8.3
2016-Feb-12 16:10 138 8.3
2016-Feb-12 16:05 117 1 gusting 5 8.3
2016-Feb-12 15:59 132 2 gusting 8 8.3
2016-Feb-12 15:49 129 1 gusting 7 8.3
2016-Feb-12 15:39 118 3 gusting 8 8.3
2016-Feb-12 15:35 161 4 gusting 6 8.3
2016-Feb-12 15:29 113 4 gusting 6 8.3
2016-Feb-12 15:24 141 4 gusting 6 8.3
2016-Feb-12 15:19 104 5 gusting 6 8.9
2016-Feb-12 15:09 130 2 gusting 7 8.9
2016-Feb-12 15:04 115 5 gusting 7 8.9
2016-Feb-12 14:54 100 2 gusting 6 8.9
2016-Feb-12 14:44 132 2 gusting 6 8.9
2016-Feb-12 14:34 085 5 gusting 8 8.9
2016-Feb-12 14:24 053 1 gusting 6 9.4
2016-Feb-12 14:20 054 2 gusting 7 9.4
2016-Feb-12 14:14 051 5 gusting 9 9.4
2016-Feb-12 14:10 046 5 gusting 9 9.4
2016-Feb-12 13:59 055 6 gusting 9 9.4
2016-Feb-12 13:54 071 4 gusting 8 9.4
2016-Feb-12 13:50 053 3 gusting 9 10.0
2016-Feb-12 13:44 076 6 gusting 9 10.0
2016-Feb-12 13:39 054 6 gusting 8 10.0
2016-Feb-12 13:29 086 2 gusting 6 10.0
2016-Feb-12 13:19 051 3 gusting 6 10.0
2016-Feb-12 13:15 067 4 gusting 6 10.0
2016-Feb-12 13:10 066 3 gusting 6 10.0
2016-Feb-12 13:05 066 2 gusting 6 10.0
2016-Feb-12 12:59 054 3 gusting 7 10.0
2016-Feb-12 12:54 338 2 gusting 7 10.6
2016-Feb-12 12:49 031 4 gusting 6 10.0
2016-Feb-12 12:44 028 3 gusting 7 10.0
2016-Feb-12 12:40 350 6 gusting 7 9.4
2016-Feb-12 12:34 009 3 gusting 6 9.4
2016-Feb-12 12:30 355 4 gusting 6 9.4
2016-Feb-12 12:24 014 3 gusting 7 9.4
2016-Feb-12 12:20 011 4 gusting 7 9.4
2016-Feb-12 12:14 350 1 gusting 5 9.4
2016-Feb-12 12:10 030 2 gusting 6 9.4
2016-Feb-12 12:00 005 1 gusting 6 9.4
2016-Feb-12 11:50 005 3 gusting 6 9.4
2016-Feb-12 11:44 005 3 gusting 6 9.4
2016-Feb-12 11:40 313 2 gusting 6 9.4
2016-Feb-12 11:34 059 2 gusting 6 9.4
2016-Feb-12 11:24 005 5 gusting 6 8.9
2016-Feb-12 11:19 355 2 gusting 6 8.9
2016-Feb-12 11:10 360 3 gusting 6 8.9
2016-Feb-12 11:05 345 4 gusting 6 8.3
2016-Feb-12 10:59 327 4 gusting 5 8.3
2016-Feb-12 10:55 333 1 gusting 5 8.3
2016-Feb-12 10:49 334 1 gusting 6 8.3
2016-Feb-12 10:39 309 1 gusting 4 7.8
2016-Feb-12 10:35 286 2 gusting 4 7.8
2016-Feb-12 10:29 306 2 gusting 4 7.8
2016-Feb-12 10:25 329 2 gusting 4 8.3
2016-Feb-12 10:19 355 1 gusting 6 7.8
2016-Feb-12 10:09 295 2 gusting 6 7.8
2016-Feb-12 10:05 321 1 gusting 7 7.8
2016-Feb-12 09:59 321 1 gusting 8 7.8
2016-Feb-12 09:55 360 5 gusting 8 7.8
2016-Feb-12 09:49 332 4 gusting 6 8.3
2016-Feb-12 09:39 005 6 gusting 9 8.3
2016-Feb-12 09:30 327 4 gusting 6 8.3
2016-Feb-12 09:24 334 3 gusting 5 8.3
2016-Feb-12 09:19 293 8.3
2016-Feb-12 09:15 293 8.3
2016-Feb-12 09:09 288 0 gusting 5 8.3
2016-Feb-12 09:04 321 1 gusting 5 8.3
2016-Feb-12 08:59 304 2 gusting 5 8.9
2016-Feb-12 08:50 311 2 gusting 7 8.3
2016-Feb-12 08:44 292 3 gusting 7 8.3
2016-Feb-12 08:35 302 5 gusting 6 8.3
2016-Feb-12 08:29 336 2 gusting 6 8.3
2016-Feb-12 08:25 333 4 gusting 6 8.3
2016-Feb-12 08:19 284 3 gusting 6 8.3
2016-Feb-12 08:15 331 3 gusting 6 8.3
2016-Feb-12 08:09 312 3 gusting 5 7.8
2016-Feb-12 08:05 300 2 gusting 5 7.8
2016-Feb-12 07:59 302 2 gusting 4 7.8
2016-Feb-12 07:55 195 0 gusting 3 7.8
2016-Feb-12 07:49 185 1 gusting 4 7.8
2016-Feb-12 07:44 184 1 gusting 4 7.2
2016-Feb-12 07:40 184 7.2
2016-Feb-12 07:35 184 7.2
2016-Feb-12 07:29 184 7.2
2016-Feb-12 07:20 184 7.2
2016-Feb-12 07:14 184 7.2
2016-Feb-12 07:10 184 7.2
2016-Feb-12 07:04 184 7.2
2016-Feb-12 07:00 184 7.2
2016-Feb-12 06:55 184 7.2
2016-Feb-12 06:45 184 0 gusting 4 7.2
2016-Feb-12 06:39 183 1 gusting 4 7.2
2016-Feb-12 06:29 172 1 gusting 4 7.2
2016-Feb-12 06:25 173 2 gusting 5 7.2
2016-Feb-12 06:19 174 3 gusting 5 7.2
2016-Feb-12 06:15 156 1 gusting 4 7.2
2016-Feb-12 06:10 155 2 gusting 4 7.2
2016-Feb-12 06:00 164 7.2
2016-Feb-12 05:54 164 1 gusting 4 6.7
2016-Feb-12 05:45 132 0 gusting 6 6.7
2016-Feb-12 05:39 126 3 gusting 6 6.7
2016-Feb-12 05:35 140 1 gusting 5 6.7
2016-Feb-12 05:30 151 6.7
2016-Feb-12 05:24 163 2 gusting 6 6.7
2016-Feb-12 05:15 175 1 gusting 5 6.7
2016-Feb-12 05:09 138 3 gusting 6 6.7
2016-Feb-12 05:05 130 5 gusting 6 6.7
2016-Feb-12 04:59 117 5 gusting 6 6.7
2016-Feb-12 04:55 110 4 gusting 6 6.7
2016-Feb-12 04:50 114 3 gusting 5 6.7
2016-Feb-12 04:44 144 2 gusting 4 6.7
2016-Feb-12 04:40 144 1 gusting 4 6.7
2016-Feb-12 04:34 146 1 gusting 4 6.7
2016-Feb-12 04:25 142 1 gusting 3 6.7
2016-Feb-12 04:19 142 0 gusting 3 6.7
2016-Feb-12 04:10 138 1 gusting 4 6.7
2016-Feb-12 04:04 131 6.7
2016-Feb-12 04:00 104 2 gusting 4 6.7
2016-Feb-12 03:55 107 1 gusting 4 6.7
2016-Feb-12 03:49 103 2 gusting 4 6.7
2016-Feb-12 03:45 125 2 gusting 4 6.7
2016-Feb-12 03:40 136 0 gusting 4 6.7
2016-Feb-12 03:34 136 2 gusting 4 6.7
2016-Feb-12 03:29 139 0 gusting 4 6.7
2016-Feb-12 03:20 127 2 gusting 5 6.7
2016-Feb-12 03:15 138 0 gusting 4 6.7
2016-Feb-12 03:09 129 2 gusting 4 6.7
2016-Feb-12 03:05 114 3 gusting 4 6.7
2016-Feb-12 03:00 147 2 gusting 4 6.7
2016-Feb-12 02:54 130 2 gusting 4 6.7
2016-Feb-12 02:49 126 1 gusting 4 6.7
2016-Feb-12 02:40 117 2 gusting 4 6.7
2016-Feb-12 02:34 123 6.7
2016-Feb-12 02:30 123 0 gusting 4 6.7
2016-Feb-12 02:24 113 2 gusting 5 6.7
2016-Feb-12 02:20 117 2 gusting 5 6.7
2016-Feb-12 02:15 115 2 gusting 5 6.7
2016-Feb-12 02:10 128 3 gusting 5 6.7
2016-Feb-12 02:00 117 2 gusting 5 6.7
2016-Feb-12 01:54 124 2 gusting 4 6.7
2016-Feb-12 01:45 127 1 gusting 5 6.7
2016-Feb-12 01:39 127 2 gusting 5 6.7
2016-Feb-12 01:34 124 3 gusting 5 6.7
2016-Feb-12 01:25 125 3 gusting 6 7.2
2016-Feb-12 01:19 131 4 gusting 6 7.2
2016-Feb-12 01:15 127 5 gusting 6 7.2
2016-Feb-12 01:09 136 3 gusting 5 7.2
2016-Feb-12 01:05 169 3 gusting 5 7.2
2016-Feb-12 00:59 172 2 gusting 6 7.2
2016-Feb-12 00:55 175 3 gusting 6 7.2
2016-Feb-12 00:49 167 4 gusting 6 7.2
2016-Feb-12 00:40 149 2 gusting 4 7.8
2016-Feb-12 00:35 160 7.8
2016-Feb-12 00:30 169 3 gusting 6 7.8
2016-Feb-12 00:24 145 2 gusting 5 7.8
2016-Feb-12 00:20 151 2 gusting 5 7.8
2016-Feb-12 00:15 164 3 gusting 6 7.8
2016-Feb-12 00:09 152 3 gusting 6 7.8
2016-Feb-12 00:05 173 3 gusting 6 7.8
2016-Feb-11 23:59 182 4 gusting 6 7.8
2016-Feb-11 23:55 166 3 gusting 5 7.8
2016-Feb-11 23:50 163 3 gusting 6 7.8
2016-Feb-11 23:45 161 3 gusting 6 7.8
2016-Feb-11 23:39 193 5 gusting 6 7.2
2016-Feb-11 23:35 203 5 gusting 6 7.2
2016-Feb-11 23:30 188 4 gusting 6 7.2
2016-Feb-11 23:24 181 3 gusting 5 7.2
2016-Feb-11 23:15 189 2 gusting 4 6.7
2016-Feb-11 23:09 189 2 gusting 4 6.7
2016-Feb-11 23:05 189 1 gusting 5 6.7
2016-Feb-11 22:59 186 3 gusting 5 6.7
2016-Feb-11 22:54 173 0 gusting 3 6.7
2016-Feb-11 22:50 173 2 gusting 4 6.1
2016-Feb-11 22:39 137 1 gusting 5 6.1
2016-Feb-11 22:34 154 2 gusting 5 6.1
2016-Feb-11 22:29 153 2 gusting 5 6.1
2016-Feb-11 22:24 164 2 gusting 5 6.1
2016-Feb-11 22:19 130 3 gusting 5 6.1
2016-Feb-11 22:15 150 3 gusting 5 6.1
2016-Feb-11 22:09 146 3 gusting 5 5.6
2016-Feb-11 22:04 124 2 gusting 5 5.6
2016-Feb-11 21:59 131 3 gusting 5 5.6
2016-Feb-11 21:49 162 3 gusting 5 5.6
2016-Feb-11 21:45 140 2 gusting 5 5.6
2016-Feb-11 21:34 157 3 gusting 5 5.6
2016-Feb-11 21:24 175 3 gusting 5 5.6
2016-Feb-11 21:20 168 3 gusting 5 5.6
2016-Feb-11 21:09 162 2 gusting 6 5.6
2016-Feb-11 21:04 153 2 gusting 6 5.6